Torna al catalogo

STARLINK-31538

AttivoComunicazioniVLEO
NORAD 59525·PAYLOAD·🇺🇸 United States

Lanciato Apr 17, 2024 da Cape Canaveral Space Force Station

Loading…

Prossimi Passaggi (prossime 24 ore)

TLE

AggiornatoSource: CelesTrak SupGP

Epoca: Sep 15, 2026, 02:24 UTC

1 59525C 24073Q   26258.10048611  .00043121  00000+0  15618-2 0  2587
2 59525  43.0010 328.1373 0001465 266.7419 168.9482 15.27556592    10

Traccia STARLINK-31538 in tempo reale con AllMySat

Download on the App Store